| time (UTC) | temp C | wind direction | speed KPH | gust KPH | rain 1hr cm | rain 24hr cm | rain mn cm | humidity % | barometer mb |
| 20260906033906 | 14 | 336 | 27.4 | 56.3 | 0.05 | 1.04 | 1.04 | 91 | 1003.1 |
| 20260906033406 | 14 | 346 | 27.4 | 56.3 | 0.05 | 1.04 | 1.04 | 91 | 1003.0 |
| 20260906032907 | 14 | 348 | 32.2 | 56.3 | 0.05 | 1.04 | 1.04 | 91 | 1003.3 |
| 20260906032407 | 14 | 351 | 32.2 | 57.9 | 0.05 | 1.04 | 1.04 | 91 | 1003.2 |
| 20260906031906 | 14 | 341 | 33.8 | 56.3 | 0.08 | 1.04 | 1.04 | 91 | 1003.1 |
| 20260906031406 | 14 | 354 | 32.2 | 51.5 | 0.10 | 1.04 | 1.04 | 91 | 1003.2 |
| 20260906030907 | 14 | 352 | 32.2 | 59.5 | 0.15 | 1.04 | 1.04 | 91 | 1003.4 |
| 20260906025907 | 14 | 343 | 25.7 | 46.7 | 0.18 | 1.04 | 1.04 | 90 | 1003.4 |
| 20260906024906 | 14 | 335 | 29.0 | 51.5 | 0.18 | 1.04 | 1.04 | 90 | 1003.4 |
| 20260906024407 | 13 | 348 | 27.4 | 56.3 | 0.20 | 1.02 | 1.02 | 90 | 1003.5 |
| 20260906023906 | 13 | 358 | 25.7 | 64.4 | 0.23 | 0.99 | 0.99 | 90 | 1003.7 |
| 20260906023407 | 13 | 350 | 24.1 | 45.1 | 0.23 | 0.99 | 0.99 | 90 | 1003.6 |
| 20260906022906 | 13 | 344 | 29.0 | 48.3 | 0.25 | 0.99 | 0.99 | 90 | 1003.5 |
| 20260906022406 | 13 | 354 | 30.6 | 48.3 | 0.25 | 0.99 | 0.99 | 90 | 1003.6 |
| 20260906021907 | 13 | 344 | 27.4 | 45.1 | 0.23 | 0.97 | 0.97 | 90 | 1003.5 |
| 20260906021406 | 13 | 336 | 32.2 | 57.9 | 0.23 | 0.94 | 0.94 | 90 | 1003.6 |
| 20260906020906 | 13 | 348 | 27.4 | 46.7 | 0.15 | 0.89 | 0.89 | 89 | 1003.8 |
| 20260906020407 | 13 | 347 | 25.7 | 53.1 | 0.15 | 0.86 | 0.86 | 89 | 1003.9 |
| 20260906015407 | 13 | 351 | 27.4 | 56.3 | 0.15 | 0.86 | 0.86 | 89 | 1004.1 |
| 20260906013407 | 13 | 358 | 22.5 | 61.2 | 0.08 | 0.76 | 0.76 | 88 | 1004.8 |
| 20260906012407 | 13 | 348 | 20.9 | 49.9 | 0.13 | 0.71 | 0.71 | 87 | 1005.0 |
| 20260906011906 | 13 | 341 | 27.4 | 46.7 | 0.13 | 0.71 | 0.71 | 88 | 1005.5 |
| 20260906011407 | 13 | 355 | 29.0 | 56.3 | 0.15 | 0.71 | 0.71 | 88 | 1005.6 |
| 20260906010908 | 13 | 350 | 27.4 | 49.9 | 0.15 | 0.71 | 0.71 | 89 | 1005.7 |
| 20260906005907 | 13 | 357 | 20.9 | 33.8 | 0.20 | 0.71 | 0.71 | 89 | 1005.9 |
| 20260906004407 | 13 | 351 | 20.9 | 35.4 | 0.23 | 0.71 | 0.71 | 90 | 1006.4 |
| 20260906003907 | 13 | 348 | 20.9 | 41.8 | 0.23 | 0.69 | 0.69 | 90 | 1006.3 |
| 20260906003407 | 13 | 349 | 20.9 | 33.8 | 0.23 | 0.69 | 0.69 | 90 | 1006.5 |
| 20260906002906 | 13 | 344 | 29.0 | 45.1 | 0.23 | 0.64 | 0.64 | 90 | 1006.6 |
| 20260906002408 | 13 | 356 | 19.3 | 33.8 | 0.20 | 0.61 | 0.61 | 90 | 1006.8 |
| 20260906001907 | 13 | 347 | 12.9 | 25.7 | 0.23 | 0.61 | 0.61 | 90 | 1007.0 |
| 20260906001408 | 13 | 341 | 17.7 | 32.2 | 0.23 | 0.58 | 0.58 | 90 | 1007.4 |
| 20260906000907 | 13 | 355 | 14.5 | 25.7 | 0.23 | 0.56 | 0.56 | 90 | 1007.7 |
| 20260906000407 | 13 | 350 | 16.1 | 24.1 | 0.23 | 0.51 | 0.51 | 90 | 1007.6 |
| 20260905235908 | 13 | 352 | 16.1 | 35.4 | 0.23 | 0.51 | 0.51 | 90 | 1007.3 |
| 20260905235407 | 13 | 0 | 16.1 | 32.2 | 0.20 | 0.51 | 0.51 | 90 | 1007.3 |
| 20260905234907 | 13 | 342 | 14.5 | 29.0 | 0.18 | 0.48 | 0.48 | 90 | 1007.6 |
| 20260905234406 | 13 | 351 | 14.5 | 24.1 | 0.18 | 0.48 | 0.48 | 90 | 1008.0 |
| 20260905233906 | 13 | 348 | 14.5 | 32.2 | 0.15 | 0.46 | 0.46 | 90 | 1008.4 |
| 20260905233407 | 13 | 350 | 17.7 | 38.6 | 0.15 | 0.43 | 0.43 | 90 | 1008.6 |
| 20260905232907 | 13 | 343 | 19.3 | 45.1 | 0.13 | 0.43 | 0.43 | 90 | 1008.8 |
| 20260905232407 | 13 | 351 | 17.7 | 41.8 | 0.10 | 0.41 | 0.41 | 90 | 1008.7 |
| 20260905231906 | 13 | 333 | 16.1 | 33.8 | 0.08 | 0.38 | 0.38 | 90 | 1008.8 |
| 20260905230907 | 13 | 346 | 17.7 | 32.2 | 0.03 | 0.33 | 0.33 | 89 | 1009.0 |
| 20260905225907 | 13 | 348 | 11.3 | 29.0 | 0.00 | 0.30 | 0.30 | 89 | 1008.9 |
| 20260905225407 | 13 | 351 | 14.5 | 29.0 | 0.00 | 0.30 | 0.30 | 90 | 1009.0 |
| 20260905224406 | 13 | 353 | 14.5 | 32.2 | 0.00 | 0.30 | 0.30 | 90 | 1009.1 |
| 20260905223907 | 13 | 341 | 14.5 | 32.2 | 0.00 | 0.30 | 0.30 | 90 | 1009.1 |
| 20260905223408 | 13 | 343 | 16.1 | 35.4 | 0.03 | 0.30 | 0.30 | 90 | 1009.1 |
| 20260905222906 | 13 | 341 | 16.1 | 33.8 | 0.03 | 0.30 | 0.30 | 90 | 1009.1 |
| 20260905222406 | 13 | 352 | 19.3 | 29.0 | 0.03 | 0.30 | 0.30 | 90 | 1009.2 |
| 20260905221906 | 13 | 351 | 16.1 | 32.2 | 0.03 | 0.30 | 0.30 | 90 | 1009.3 |
| 20260905221407 | 13 | 333 | 14.5 | 27.4 | 0.03 | 0.30 | 0.30 | 90 | 1009.3 |
| 20260905220907 | 13 | 345 | 14.5 | 24.1 | 0.03 | 0.30 | 0.30 | 90 | 1009.4 |
| 20260905220407 | 13 | 334 | 14.5 | 29.0 | 0.03 | 0.30 | 0.30 | 90 | 1009.5 |
| 20260905215907 | 13 | 348 | 11.3 | 29.0 | 0.03 | 0.30 | 0.30 | 90 | 1009.6 |
| 20260905215407 | 13 | 352 | 12.9 | 24.1 | 0.03 | 0.30 | 0.30 | 90 | 1009.7 |
| 20260905214907 | 13 | 336 | 16.1 | 32.2 | 0.05 | 0.30 | 0.30 | 90 | 1009.7 |
| 20260905214406 | 13 | 343 | 12.9 | 22.5 | 0.05 | 0.30 | 0.30 | 90 | 1009.7 |
| 20260905213907 | 13 | 346 | 12.9 | 29.0 | 0.08 | 0.30 | 0.30 | 90 | 1009.9 |
| 20260905213407 | 13 | 346 | 16.1 | 29.0 | 0.05 | 0.28 | 0.28 | 90 | 1010.0 |
| 20260905212907 | 13 | 326 | 14.5 | 24.1 | 0.05 | 0.28 | 0.28 | 90 | 1010.1 |
| 20260905211911 | 13 | 342 | 19.3 | 33.8 | 0.08 | 0.28 | 0.28 | 90 | 1010.2 |
| 20260905211407 | 13 | 356 | 12.9 | 27.4 | 0.08 | 0.28 | 0.28 | 90 | 1010.3 |
| 20260905210906 | 13 | 348 | 16.1 | 32.2 | 0.10 | 0.28 | 0.28 | 90 | 1010.3 |
| 20260905210406 | 13 | 349 | 16.1 | 32.2 | 0.13 | 0.28 | 0.28 | 90 | 1010.4 |
| 20260905205907 | 13 | 349 | 19.3 | 29.0 | 0.13 | 0.28 | 0.28 | 90 | 1010.5 |
| 20260905205407 | 13 | 351 | 19.3 | 29.0 | 0.13 | 0.28 | 0.28 | 90 | 1010.7 |
| 20260905204907 | 13 | 346 | 16.1 | 32.2 | 0.13 | 0.25 | 0.25 | 90 | 1010.7 |
| 20260905204406 | 13 | 346 | 16.1 | 27.4 | 0.10 | 0.23 | 0.23 | 90 | 1010.8 |
| 20260905203907 | 13 | 354 | 19.3 | 32.2 | 0.10 | 0.23 | 0.23 | 90 | 1010.9 |
| 20260905203406 | 13 | 348 | 19.3 | 33.8 | 0.10 | 0.23 | 0.23 | 90 | 1010.9 |
| 20260905202907 | 13 | 345 | 16.1 | 25.7 | 0.13 | 0.23 | 0.23 | 90 | 1011.0 |
| 20260905202406 | 13 | 341 | 14.5 | 29.0 | 0.15 | 0.23 | 0.23 | 90 | 1011.0 |
| 20260905201907 | 13 | 348 | 19.3 | 29.0 | 0.13 | 0.20 | 0.20 | 90 | 1011.0 |
| 20260905201407 | 13 | 340 | 14.5 | 33.8 | 0.13 | 0.20 | 0.20 | 90 | 1010.9 |
| 20260905200907 | 13 | 320 | 16.1 | 29.0 | 0.10 | 0.18 | 0.18 | 90 | 1010.9 |
| 20260905200407 | 13 | 343 | 19.3 | 33.8 | 0.15 | 0.15 | 0.15 | 90 | 1011.0 |
| 20260905195907 | 13 | 349 | 17.7 | 29.0 | 0.15 | 0.15 | 0.15 | 90 | 1011.0 |
| 20260905195406 | 13 | 332 | 16.1 | 32.2 | 0.15 | 0.15 | 0.15 | 90 | 1011.0 |
| 20260905194907 | 13 | 343 | 14.5 | 24.1 | 0.15 | 0.15 | 0.15 | 90 | 1011.1 |
| 20260905194407 | 13 | 347 | 14.5 | 27.4 | 0.15 | 0.15 | 0.15 | 90 | 1011.0 |
| 20260905193907 | 13 | 335 | 11.3 | 29.0 | 0.13 | 0.13 | 0.13 | 90 | 1011.0 |
| 20260905193406 | 13 | 348 | 16.1 | 32.2 | 0.13 | 0.13 | 0.13 | 90 | 1011.1 |
| 20260905190907 | 13 | 343 | 17.7 | 29.0 | 0.08 | 0.08 | 0.08 | 90 | 1011.0 |
| 20260905190406 | 13 | 340 | 14.5 | 25.7 | 0.00 | 0.00 | 0.00 | 90 | 1011.0 |
| 20260905185906 | 13 | 346 | 12.9 | 27.4 | 0.00 | 0.00 | 0.00 | 90 | 1011.1 |
| 20260905185407 | 13 | 351 | 14.5 | 32.2 | 0.00 | 0.00 | 0.00 | 90 | 1011.0 |
| 20260905184406 | 13 | 348 | 12.9 | 24.1 | 0.00 | 0.00 | 0.00 | 90 | 1011.2 |
| 20260905183406 | 13 | 352 | 11.3 | 24.1 | 0.00 | 0.00 | 0.00 | 89 | 1011.2 |
| 20260905182906 | 13 | 335 | 9.7 | 19.3 | 0.00 | 0.00 | 0.00 | 89 | 1011.2 |
| 20260905182406 | 13 | 345 | 11.3 | 20.9 | 0.00 | 0.00 | 0.00 | 89 | 1011.2 |
| 20260905180906 | 13 | 345 | 8.0 | 19.3 | 0.00 | 0.00 | 0.00 | 89 | 1011.1 |
| 20260905180407 | 13 | 342 | 8.0 | 19.3 | 0.00 | 0.00 | 0.00 | 89 | 1011.0 |
| 20260905175907 | 13 | 340 | 6.4 | 25.7 | 0.00 | 0.00 | 0.00 | 89 | 1011.0 |
| 20260905175406 | 13 | 350 | 14.5 | 22.5 | 0.00 | 0.00 | 0.00 | 89 | 1011.2 |
| 20260905174406 | 13 | 340 | 11.3 | 25.7 | 0.00 | 0.00 | 0.00 | 89 | 1011.2 |
| 20260905173907 | 13 | 351 | 12.9 | 22.5 | 0.00 | 0.00 | 0.00 | 89 | 1011.2 |
| 20260905173407 | 13 | 348 | 14.5 | 20.9 | 0.00 | 0.00 | 0.00 | 89 | 1011.1 |
| 20260905172906 | 13 | 351 | 12.9 | 24.1 | 0.00 | 0.00 | 0.00 | 89 | 1011.0 |
| 20260905172406 | 13 | 340 | 14.5 | 22.5 | 0.00 | 0.00 | 0.00 | 89 | 1011.0 |
| 20260905171907 | 13 | 338 | 16.1 | 32.2 | 0.00 | 0.00 | 0.00 | 89 | 1011.0 |
| 20260905170906 | 13 | 345 | 14.5 | 29.0 | 0.00 | 0.00 | 0.00 | 89 | 1011.1 |
| 20260905170407 | 13 | 347 | 12.9 | 22.5 | 0.00 | 0.00 | 0.00 | 89 | 1011.1 |
| 20260905165906 | 13 | 339 | 9.7 | 25.7 | 0.00 | 0.00 | 0.00 | 89 | 1011.2 |
| 20260905165406 | 13 | 350 | 14.5 | 32.2 | 0.00 | 0.00 | 0.00 | 89 | 1011.2 |
| 20260905164906 | 13 | 342 | 14.5 | 24.1 | 0.00 | 0.00 | 0.00 | 89 | 1011.1 |
| 20260905163906 | 13 | 329 | 11.3 | 27.4 | 0.00 | 0.00 | 0.00 | 89 | 1011.0 |
| 20260905163406 | 13 | 345 | 16.1 | 32.2 | 0.00 | 0.00 | 0.00 | 89 | 1010.8 |
| 20260905162906 | 13 | 335 | 8.0 | 25.7 | 0.00 | 0.00 | 0.00 | 89 | 1010.7 |
| 20260905162406 | 12 | 347 | 8.0 | 22.5 | 0.00 | 0.00 | 0.00 | 89 | 1010.7 |
| 20260905161906 | 12 | 326 | 8.0 | 20.9 | 0.00 | 0.00 | 0.00 | 89 | 1010.6 |
| 20260905160907 | 13 | 330 | 8.0 | 27.4 | 0.00 | 0.00 | 0.00 | 89 | 1010.5 |
| 20260905160406 | 13 | 344 | 16.1 | 32.2 | 0.00 | 0.00 | 0.00 | 89 | 1010.4 |
| 20260905155906 | 13 | 341 | 19.3 | 32.2 | 0.00 | 0.00 | 0.00 | 89 | 1010.5 |
| 20260905154907 | 13 | 351 | 12.9 | 22.5 | 0.00 | 0.00 | 0.00 | 89 | 1010.6 |
| 20260905154406 | 13 | 343 | 9.7 | 20.9 | 0.00 | 0.00 | 0.00 | 89 | 1010.6 |
| 20260905153907 | 13 | 342 | 8.0 | 22.5 | 0.00 | 0.00 | 0.00 | 89 | 1010.7 |
| 20260905153406 | 13 | 347 | 11.3 | 22.5 | 0.00 | 0.00 | 0.00 | 89 | 1010.7 |
| 20260905152910 | 13 | 338 | 9.7 | 25.7 | 0.00 | 0.00 | 0.00 | 89 | 1010.6 |
| 20260905152407 | 13 | 285 | 11.3 | 27.4 | 0.00 | 0.00 | 0.00 | 89 | 1010.6 |
| 20260905151907 | 13 | 319 | 9.7 | 24.1 | 0.00 | 0.00 | 0.00 | 89 | 1010.6 |
| 20260905150906 | 13 | 331 | 6.4 | 22.5 | 0.00 | 0.00 | 0.00 | 89 | 1010.6 |
| 20260905150407 | 13 | 301 | 9.7 | 22.5 | 0.00 | 0.00 | 0.00 | 89 | 1010.6 |
| 20260905145907 | 13 | 317 | 6.4 | 24.1 | 0.00 | 0.00 | 0.00 | 89 | 1010.6 |
| 20260905145406 | 13 | 335 | 8.0 | 25.7 | 0.00 | 0.00 | 0.00 | 88 | 1010.6 |
| 20260905144906 | 13 | 242 | 8.0 | 22.5 | 0.00 | 0.00 | 0.00 | 88 | 1010.6 |
| 20260905144407 | 13 | 317 | 9.7 | 20.9 | 0.00 | 0.00 | 0.00 | 88 | 1010.5 |
| 20260905143907 | 13 | 318 | 9.7 | 20.9 | 0.00 | 0.00 | 0.00 | 88 | 1010.6 |
| 20260905143407 | 13 | 294 | 9.7 | 24.1 | 0.00 | 0.00 | 0.00 | 88 | 1010.8 |
| 20260905142907 | 13 | 281 | 11.3 | 22.5 | 0.00 | 0.00 | 0.00 | 88 | 1010.8 |
| 20260905142407 | 13 | 307 | 8.0 | 19.3 | 0.00 | 0.00 | 0.00 | 88 | 1010.9 |
| 20260905141906 | 13 | 321 | 9.7 | 24.1 | 0.00 | 0.00 | 0.00 | 88 | 1011.0 |
| 20260905141407 | 13 | 299 | 9.7 | 24.1 | 0.00 | 0.00 | 0.00 | 88 | 1011.0 |
| 20260905140907 | 13 | 318 | 8.0 | 24.1 | 0.00 | 0.00 | 0.00 | 88 | 1011.0 |
| 20260905140407 | 13 | 325 | 6.4 | 24.1 | 0.00 | 0.00 | 0.00 | 88 | 1011.0 |
| 20260905135906 | 13 | 307 | 9.7 | 25.7 | 0.00 | 0.00 | 0.00 | 88 | 1010.9 |
| 20260905135406 | 13 | 343 | 11.3 | 35.4 | 0.00 | 0.00 | 0.00 | 88 | 1011.1 |
| 20260905134906 | 13 | 330 | 11.3 | 25.7 | 0.00 | 0.00 | 0.00 | 88 | 1011.1 |
| 20260905134406 | 13 | 320 | 8.0 | 20.9 | 0.00 | 0.00 | 0.00 | 88 | 1011.3 |
| 20260905133906 | 13 | 335 | 16.1 | 33.8 | 0.00 | 0.00 | 0.00 | 88 | 1011.4 |
| 20260905132906 | 13 | 320 | 12.9 | 35.4 | 0.00 | 0.00 | 0.00 | 87 | 1011.7 |
| 20260905132407 | 13 | 333 | 16.1 | 29.0 | 0.00 | 0.00 | 0.00 | 87 | 1011.8 |
| 20260905131906 | 13 | 338 | 12.9 | 32.2 | 0.00 | 0.00 | 0.00 | 87 | 1011.8 |
| 20260905130907 | 13 | 346 | 16.1 | 29.0 | 0.00 | 0.00 | 0.00 | 87 | 1011.9 |
| 20260905130406 | 13 | 336 | 17.7 | 32.2 | 0.00 | 0.00 | 0.00 | 87 | 1012.0 |
| 20260905125907 | 13 | 343 | 14.5 | 41.8 | 0.00 | 0.00 | 0.00 | 87 | 1011.9 |
| 20260905125406 | 13 | 344 | 17.7 | 37.0 | 0.00 | 0.00 | 0.00 | 87 | 1011.9 |
| 20260905124906 | 13 | 350 | 22.5 | 40.2 | 0.00 | 0.00 | 0.00 | 87 | 1011.9 |
| 20260905124406 | 13 | 324 | 14.5 | 32.2 | 0.00 | 0.00 | 0.00 | 87 | 1011.9 |
| 20260905123906 | 13 | 305 | 11.3 | 37.0 | 0.00 | 0.00 | 0.00 | 87 | 1012.0 |
| 20260905123406 | 13 | 334 | 11.3 | 25.7 | 0.00 | 0.00 | 0.00 | 87 | 1012.0 |
| 20260905122906 | 13 | 287 | 12.9 | 37.0 | 0.00 | 0.00 | 0.00 | 87 | 1012.0 |
| 20260905122406 | 13 | 327 | 11.3 | 32.2 | 0.00 | 0.00 | 0.00 | 87 | 1011.9 |
| 20260905120907 | 13 | 287 | 14.5 | 37.0 | 0.00 | 0.00 | 0.00 | 87 | 1012.0 |
| 20260905120406 | 13 | 337 | 16.1 | 37.0 | 0.00 | 0.00 | 0.00 | 87 | 1012.1 |
| 20260905115908 | 13 | 303 | 19.3 | 35.4 | 0.00 | 0.00 | 0.00 | 87 | 1012.2 |
| 20260905115406 | 13 | 334 | 20.9 | 40.2 | 0.00 | 0.00 | 0.00 | 87 | 1012.1 |
| 20260905114906 | 13 | 324 | 16.1 | 40.2 | 0.00 | 0.00 | 0.00 | 87 | 1012.1 |
| 20260905113907 | 13 | 335 | 11.3 | 32.2 | 0.00 | 0.00 | 0.00 | 86 | 1012.1 |
| 20260905113406 | 13 | 247 | 17.7 | 41.8 | 0.00 | 0.00 | 0.00 | 86 | 1012.1 |
| 20260905112906 | 13 | 332 | 17.7 | 33.8 | 0.00 | 0.00 | 0.00 | 86 | 1012.3 |
| 20260905112406 | 13 | 343 | 14.5 | 32.2 | 0.00 | 0.00 | 0.00 | 86 | 1012.4 |
| 20260905111907 | 13 | 290 | 19.3 | 37.0 | 0.00 | 0.00 | 0.00 | 86 | 1012.4 |
| 20260905111406 | 13 | 322 | 19.3 | 38.6 | 0.00 | 0.00 | 0.00 | 87 | 1012.4 |
| 20260905110906 | 13 | 309 | 16.1 | 35.4 | 0.00 | 0.00 | 0.00 | 87 | 1012.4 |
| 20260905110406 | 13 | 340 | 12.9 | 41.8 | 0.00 | 0.00 | 0.00 | 87 | 1012.3 |
| 20260905105906 | 13 | 337 | 19.3 | 40.2 | 0.00 | 0.00 | 0.00 | 87 | 1012.3 |
| 20260905105406 | 13 | 341 | 19.3 | 32.2 | 0.00 | 0.00 | 0.00 | 87 | 1012.4 |
| 20260905104910 | 13 | 329 | 19.3 | 33.8 | 0.00 | 0.00 | 0.00 | 87 | 1012.2 |
| 20260905104406 | 13 | 344 | 14.5 | 37.0 | 0.00 | 0.00 | 0.00 | 87 | 1012.2 |
| 20260905103406 | 12 | 336 | 14.5 | 40.2 | 0.00 | 0.00 | 0.00 | 87 | 1012.2 |
| 20260905102907 | 12 | 312 | 12.9 | 32.2 | 0.00 | 0.00 | 0.00 | 87 | 1012.4 |
| 20260905102407 | 12 | 341 | 16.1 | 38.6 | 0.00 | 0.00 | 0.00 | 87 | 1012.5 |
| 20260905101907 | 12 | 333 | 16.1 | 37.0 | 0.00 | 0.00 | 0.00 | 87 | 1012.4 |
| 20260905101406 | 12 | 321 | 14.5 | 29.0 | 0.00 | 0.00 | 0.00 | 87 | 1012.4 |
| 20260905100906 | 12 | 308 | 12.9 | 40.2 | 0.00 | 0.00 | 0.00 | 87 | 1012.4 |
| 20260905100406 | 12 | 334 | 16.1 | 32.2 | 0.00 | 0.00 | 0.00 | 87 | 1012.4 |
| 20260905095906 | 12 | 322 | 8.0 | 22.5 | 0.00 | 0.00 | 0.00 | 86 | 1012.4 |
| 20260905094906 | 13 | 228 | 9.7 | 24.1 | 0.00 | 0.00 | 0.00 | 85 | 1012.4 |
| 20260905093906 | 13 | 317 | 11.3 | 27.4 | 0.00 | 0.00 | 0.00 | 85 | 1012.2 |
| 20260905093406 | 12 | 243 | 14.5 | 25.7 | 0.00 | 0.00 | 0.00 | 85 | 1012.2 |
| 20260905092906 | 12 | 283 | 14.5 | 32.2 | 0.00 | 0.00 | 0.00 | 85 | 1012.2 |
| 20260905092406 | 13 | 264 | 14.5 | 27.4 | 0.00 | 0.00 | 0.00 | 85 | 1012.4 |
| 20260905091910 | 12 | 279 | 11.3 | 32.2 | 0.00 | 0.00 | 0.00 | 85 | 1012.4 |
| 20260905091407 | 12 | 311 | 14.5 | 37.0 | 0.00 | 0.00 | 0.00 | 85 | 1012.5 |
| 20260905090906 | 13 | 242 | 12.9 | 25.7 | 0.00 | 0.00 | 0.00 | 85 | 1012.5 |
| 20260905090406 | 13 | 333 | 11.3 | 35.4 | 0.00 | 0.00 | 0.00 | 85 | 1012.6 |
| 20260905085908 | 13 | 297 | 9.7 | 29.0 | 0.00 | 0.00 | 0.00 | 85 | 1012.5 |
| 20260905085407 | 13 | 290 | 8.0 | 27.4 | 0.00 | 0.00 | 0.00 | 85 | 1012.4 |
| 20260905084906 | 13 | 344 | 9.7 | 27.4 | 0.00 | 0.00 | 0.00 | 85 | 1012.3 |
| 20260905084410 | 12 | 237 | 12.9 | 37.0 | 0.00 | 0.00 | 0.00 | 85 | 1012.1 |
| 20260905083408 | 12 | 279 | 14.5 | 32.2 | 0.00 | 0.00 | 0.00 | 85 | 1011.8 |
| 20260905082906 | 12 | 277 | 16.1 | 37.0 | 0.00 | 0.00 | 0.00 | 84 | 1011.9 |
| 20260905082407 | 12 | 310 | 17.7 | 41.8 | 0.00 | 0.00 | 0.00 | 84 | 1012.0 |
| 20260905081908 | 12 | 320 | 17.7 | 37.0 | 0.00 | 0.00 | 0.00 | 84 | 1012.0 |
| 20260905081407 | 13 | 312 | 16.1 | 40.2 | 0.00 | 0.00 | 0.00 | 84 | 1011.9 |
| 20260905080907 | 13 | 318 | 16.1 | 41.8 | 0.00 | 0.00 | 0.00 | 83 | 1012.0 |
| 20260905080406 | 12 | 322 | 19.3 | 33.8 | 0.00 | 0.00 | 0.00 | 83 | 1012.0 |
| 20260905075906 | 12 | 309 | 14.5 | 35.4 | 0.00 | 0.00 | 0.00 | 83 | 1012.0 |
| 20260905075407 | 12 | 323 | 17.7 | 40.2 | 0.00 | 0.00 | 0.00 | 84 | 1012.0 |
| 20260905074906 | 12 | 325 | 16.1 | 35.4 | 0.00 | 0.00 | 0.00 | 84 | 1012.0 |
| 20260905074406 | 13 | 334 | 16.1 | 33.8 | 0.00 | 0.00 | 0.00 | 85 | 1012.1 |
| 20260905073906 | 12 | 327 | 19.3 | 38.6 | 0.00 | 0.00 | 0.00 | 85 | 1012.0 |
| 20260905073406 | 12 | 349 | 11.3 | 33.8 | 0.00 | 0.00 | 0.00 | 85 | 1012.0 |
| 20260905072906 | 12 | 335 | 14.5 | 32.2 | 0.00 | 0.00 | 0.00 | 85 | 1011.9 |
| 20260905072406 | 12 | 339 | 11.3 | 35.4 | 0.00 | 0.00 | 0.00 | 85 | 1011.9 |
| 20260905071907 | 12 | 331 | 14.5 | 33.8 | 0.00 | 0.00 | 0.00 | 85 | 1011.9 |
| 20260905071406 | 12 | 311 | 14.5 | 33.8 | 0.00 | 0.00 | 0.00 | 86 | 1011.9 |
| 20260905070906 | 12 | 252 | 12.9 | 32.2 | 0.00 | 0.00 | 0.00 | 86 | 1011.9 |
| 20260905070406 | 12 | 228 | 14.5 | 35.4 | 0.00 | 0.00 | 0.00 | 86 | 1011.8 |
| 20260905065907 | 12 | 231 | 14.5 | 38.6 | 0.00 | 0.00 | 0.00 | 86 | 1011.8 |
| 20260905065407 | 12 | 319 | 9.7 | 41.8 | 0.00 | 0.00 | 0.00 | 86 | 1011.8 |
| 20260905064906 | 12 | 332 | 9.7 | 32.2 | 0.00 | 0.00 | 0.00 | 86 | 1011.8 |
| 20260905064406 | 12 | 320 | 9.7 | 33.8 | 0.00 | 0.00 | 0.00 | 86 | 1011.8 |
| 20260905063906 | 12 | 344 | 17.7 | 41.8 | 0.00 | 0.00 | 0.00 | 86 | 1011.8 |
| 20260905062906 | 12 | 306 | 12.9 | 32.2 | 0.00 | 0.00 | 0.00 | 86 | 1011.7 |
| 20260905062407 | 12 | 344 | 11.3 | 38.6 | 0.00 | 0.00 | 0.00 | 86 | 1011.6 |
| 20260905061906 | 12 | 299 | 14.5 | 32.2 | 0.00 | 0.00 | 0.00 | 86 | 1011.4 |
| 20260905061406 | 12 | 228 | 16.1 | 38.6 | 0.00 | 0.00 | 0.00 | 86 | 1011.3 |
| 20260905060907 | 12 | 320 | 17.7 | 37.0 | 0.00 | 0.00 | 0.00 | 85 | 1011.4 |
| 20260905060406 | 12 | 343 | 19.3 | 45.1 | 0.00 | 0.00 | 0.00 | 85 | 1011.3 |
| 20260905055906 | 12 | 0 | 20.9 | 40.2 | 0.00 | 0.00 | 0.00 | 84 | 1011.3 |
| 20260905055406 | 13 | 316 | 22.5 | 40.2 | 0.00 | 0.00 | 0.00 | 84 | 1011.2 |
| 20260905054407 | 13 | 343 | 24.1 | 48.3 | 0.00 | 0.00 | 0.00 | 83 | 1011.3 |
| 20260905053906 | 13 | 343 | 17.7 | 41.8 | 0.00 | 0.00 | 0.00 | 82 | 1011.2 |
| 20260905053406 | 13 | 254 | 17.7 | 46.7 | 0.00 | 0.00 | 0.00 | 81 | 1011.1 |
| 20260905052906 | 13 | 330 | 20.9 | 46.7 | 0.00 | 0.00 | 0.00 | 80 | 1011.2 |
| 20260905052406 | 13 | 345 | 22.5 | 53.1 | 0.00 | 0.00 | 0.00 | 80 | 1011.3 |
| 20260905051407 | 13 | 340 | 20.9 | 41.8 | 0.00 | 0.00 | 0.00 | 81 | 1011.4 |
| 20260905050907 | 13 | 337 | 22.5 | 41.8 | 0.00 | 0.00 | 0.00 | 81 | 1011.7 |
| 20260905050406 | 13 | 340 | 22.5 | 40.2 | 0.00 | 0.00 | 0.00 | 82 | 1011.6 |
| 20260905045906 | 13 | 348 | 17.7 | 41.8 | 0.00 | 0.00 | 0.00 | 83 | 1011.7 |
| 20260905045407 | 13 | 326 | 22.5 | 35.4 | 0.00 | 0.00 | 0.00 | 82 | 1011.9 |
| 20260905044906 | 13 | 334 | 19.3 | 41.8 | 0.00 | 0.00 | 0.00 | 82 | 1012.0 |
| 20260905043406 | 13 | 323 | 19.3 | 41.8 | 0.00 | 0.00 | 0.00 | 82 | 1012.1 |
| 20260905042906 | 13 | 347 | 20.9 | 32.2 | 0.00 | 0.00 | 0.00 | 82 | 1012.1 |
| 20260905042407 | 13 | 346 | 20.9 | 40.2 | 0.00 | 0.00 | 0.00 | 82 | 1012.1 |
| 20260905041907 | 13 | 335 | 14.5 | 35.4 | 0.00 | 0.00 | 0.00 | 82 | 1012.1 |
| 20260905041407 | 13 | 351 | 20.9 | 45.1 | 0.00 | 0.00 | 0.00 | 82 | 1012.1 |
| 20260905035906 | 13 | 340 | 19.3 | 48.3 | 0.00 | 0.00 | 0.00 | 81 | 1012.3 |
| 20260905035407 | 13 | 334 | 19.3 | 41.8 | 0.00 | 0.00 | 0.00 | 82 | 1012.3 |
| 20260905034907 | 13 | 344 | 19.3 | 37.0 | 0.00 | 0.00 | 0.00 | 80 | 1012.4 |
| 20260905034406 | 13 | 348 | 25.7 | 38.6 | 0.00 | 0.00 | 0.00 | 79 | 1012.4 |